Flag for U.S.A. Weather past 2 weeks in Grand Prairie, Texas, U.S.A.

Now
73 °F

Passing clouds.


Feels Like: 72 °F
Forecast: 69 / 78 °F
Wind: 13 mph from Southeast

Location: Grand Prairie Municipal Airport

Current Time: May 7, 2015 at 2:46:08 AM

Latest Report: May 7, 2015 at 2:15 AM


Visibility: 10 mi

Pressure: 29.90 "Hg

Humidity: 87%

Dew point: 69 °F

Location of Grand PrairieLocation

Historic Weather in Grand Prairie — Graph

°F

Grand Prairie temperature yesterday

Maximum temperature yesterday: 82 °F (at 3:50 PM)
Minimum temperature yesterday: 69 °F (at 2:55 AM)
Average temperature yesterday: 73 °F

Past Weeks' High & Low Weather Summary

 TemperatureHumidityPressure
High88 °F (Apr 25, 2:50 PM)100% (Apr 22, 4:35 AM)30.13 "Hg (Apr 22, 4:35 AM)
Low50 °F (Apr 29, 3:35 AM)22% (Apr 25, 4:50 PM)29.55 "Hg (Apr 26, 8:55 PM)
Average67 °F76%29.92 "Hg
* Reported Apr 22 1:15 AM — May 7 1:35 AM, Grand Prairie, Weather by CustomWeather, © 2015

Note: Actual official high and low records may vary slightly from our data, if they occured in-between our weather recording intervals... More about our weather records

Advertising

Grand Prairie weather history for previous 24 hours

 ConditionsComfort  
Time TempWeatherWind HumidityBarometerVisibility
1:35 AM
Thu, May 7
73 °FPassing clouds.12 mph86%29.91 "Hg10 mi
1:15 AM74 °FPassing clouds.12 mph86%29.90 "Hg10 mi
12:55 AM74 °FPassing clouds.13 mph86%29.91 "Hg10 mi
12:35 AM74 °FPassing clouds.14 mph86%29.91 "Hg10 mi
12:15 AM74 °FPassing clouds.8 mph84%29.91 "Hg10 mi
11:55 PM
Wed, May 6
74 °FPassing clouds.14 mph84%29.91 "Hg10 mi
11:35 PM74 °FPassing clouds.12 mph84%29.91 "Hg10 mi
11:15 PM74 °FPassing clouds.9 mph85%29.89 "Hg10 mi
10:55 PM74 °FPartly cloudy.14 mph84%29.90 "Hg10 mi
10:35 PM74 °FPassing clouds.10 mph85%29.90 "Hg10 mi
10:15 PM75 °FClear.12 mph85%29.89 "Hg10 mi
9:55 PM75 °FClear.12 mph83%29.89 "Hg10 mi
9:35 PM75 °FClear.9 mph82%29.88 "Hg10 mi
9:15 PM75 °FClear.12 mph82%29.87 "Hg10 mi
8:55 PM76 °FSunny.10 mph80%29.86 "Hg10 mi
8:35 PM76 °FSunny.8 mph80%29.86 "Hg10 mi
8:15 PM77 °FSunny.13 mph77%29.86 "Hg10 mi
7:50 PM79 °FSunny.9 mph74%29.85 "Hg10 mi
6:50 PM79 °FSunny.8 mph70%29.84 "Hg10 mi
5:50 PM82 °FScattered clouds.10 mph62%29.85 "Hg10 mi
4:50 PM82 °FSunny.12 mph62%29.87 "Hg10 mi
3:50 PM82 °FSunny.9 mph66%29.89 "Hg10 mi
2:50 PM79 °FScattered clouds.12 mph70%29.93 "Hg10 mi
1:50 PM77 °FBroken clouds.9 mph79%29.94 "Hg10 mi
12:50 PM77 °FScattered clouds.9 mph79%29.96 "Hg10 mi
11:50 AM73 °FPartly sunny.12 mph78%29.98 "Hg10 mi
10:50 AM73 °FPartly sunny.6 mph83%29.98 "Hg10 mi
9:50 AM70 °FOvercast.9 mph94%29.98 "Hg10 mi
8:50 AM70 °FOvercast.12 mph94%29.98 "Hg10 mi
7:50 AM70 °FOvercast.9 mph100%29.97 "Hg10 mi
6:50 AM70 °FOvercast.9 mph100%29.95 "Hg10 mi
6:35 AM69 °FOvercast.12 mph100%29.95 "Hg10 mi
6:15 AM69 °FOvercast.9 mph100%29.95 "Hg10 mi
5:55 AM69 °FOvercast.10 mph100%29.95 "Hg10 mi
5:35 AM69 °FOvercast.12 mph100%29.94 "Hg10 mi
5:15 AM69 °FPassing clouds.9 mph100%29.95 "Hg10 mi
4:55 AM69 °FPassing clouds.12 mph100%29.95 "Hg10 mi
4:35 AM69 °FPassing clouds.8 mph100%29.95 "Hg10 mi
4:15 AM69 °FPassing clouds.10 mph100%29.96 "Hg10 mi
3:55 AM69 °FPassing clouds.9 mph100%29.96 "Hg10 mi
3:15 AM69 °FPassing clouds.9 mph100%29.95 "Hg10 mi
2:55 AM69 °FMostly cloudy.13 mph100%29.95 "Hg5 mi
2:15 AM69 °FMostly cloudy.13 mph100%29.95 "Hg4 mi
Weather by CustomWeather, © 2015

See weather overviewHow to use our weather pages